Juan de Fuca Strait - central strait: Past 24 Hour Conditions

 

Esquimalt Harbour

12:00 AM PDT 23 April 2014
This table is a summary of hourly weather conditions for the past 24 hours.
Date / Time
(PDT)
Wind(knots) Conditions Visibility(km) Pressure(kPa) Air tempC) Relative humidity(%) Dew pointC)
23 April 2014
0:00 calm N/A N/A 101.0 7 85 5
22 April 2014
23:00 W 4 N/A N/A 101.0 8 85 6
22:00 WNW 3 N/A N/A 101.0 8 82 5
21:00 SW 5 N/A N/A 101.0 8 82 5
20:00 SW 6 N/A N/A 101.0 9 76 5
19:00 SSW 2 N/A N/A 101.0 9 73 5
18:00 SE 6 N/A N/A 101.0 10 67 4
17:00 SE 8 N/A N/A 101.0 10 71 5
16:00 SE 9 N/A N/A 101.0 10 69 5
15:00 SE 9 N/A N/A 101.1 10 68 4
14:00 SW 12 gust 19 N/A N/A 101.0 12 49 1
13:00 SW 13 N/A N/A 101.1 11 51 1
12:00 SSW 22 gust 28 N/A N/A 101.1 10 54 1
11:00 SSW 16 gust 21 N/A N/A 101.0 10 62 3
10:00 SW 14 gust 20 N/A N/A 101.0 9 63 3
9:00 SSW 13 N/A N/A 101.0 9 69 3
8:00 SSW 8 N/A N/A 101.0 8 71 3
7:00 SW 7 N/A N/A 101.0 8 76 4
6:00 SSW 8 N/A N/A 101.0 8 73 4
5:00 WSW 5 N/A N/A 101.0 8 73 3
4:00 WSW 7 N/A N/A 101.0 8 76 4
3:00 W 7 N/A N/A 101.0 8 76 4
2:00 W 8 N/A N/A 101.0 8 76 4
1:00 WSW 7 N/A N/A 101.0 8 80 5
0:00 WSW 7 N/A N/A 101.0 8 84 6
 
Map of Pacific - Georgia Basin marine weather areas Tsawwassen Ferry Terminal Sentry Shoal - 46131 Halibut Bank - 46146 La Perouse Bank - 46206 Discovery Island Esquimalt Harbour Kelp Reefs Malahat Race Rocks Lightstation Saturna Island Sheringham Point University of Victoria Victoria Gonzales Victoria Int'l Airport Ballenas Islands Campbell River Airport Comox Airport Entrance Island Fanny Island Nanaimo Airport Sisters Islets Estevan Point Tofino Airport Grief Point Powell River Airport Sechelt Point Atkinson Sand Heads Lightstation Vancouver Harbour Vancouver Int'l Airport West Vancouver Port Alberni Howe Sound - Pam Rocks Squamish Airport